Terminal Aerodrome Forecast
Issued by NWS Salt Lake City, UT

Home | Current Version | Previous Version | Text Only | Print | Product List | Glossary On
Versions: 1 2 3 4 5 6 7 8 9 10 11 12 13 14 15 16 17 18 19 20 21 22 23 24 25 26 27 28 29 30 31 32 33 34 35 36 37 38 39 40 41 42 43 44 45 46 47 48 49 50
000
FTUS45 KSLC 202055 AAB
TAFSLC
TAF AMD
KSLC 202055Z 2021/2124 18004KT P6SM VCSH SCT015 BKN030
     FM202300 19005KT P6SM VCSH SCT023 BKN050
     FM210800 14012G18KT P6SM VCSH SCT020 BKN050
     FM211200 16014G22KT 6SM -RA SCT020 BKN040=

USA.gov is the U.S. government's official web portal to all federal, state and local government web resources and services.